Location: Shades State Park
(39.9310°N, 87.0690°W)
Time: 08:54:24
(UTC-04:00)

ISS - Visible Passes

Search period start: 03 September 2015 00:00
Search period end: 13 September 2015 00:00
Orbit: 400 x 403 km, 51.6° (Epoch: 01 September)

Date Brightness Start Highest point End Pass type
(mag) Time Alt. Az. Time Alt. Az. Time Alt. Az.
08 Sep -0.8 06:04:44 10° S 06:06:52 17° SE 06:09:05 10° E visible
09 Sep -3.3 06:46:29 10° SW 06:49:44 83° SE 06:53:00 10° NE visible
10 Sep -2.3 05:55:23 28° S 05:56:31 39° SE 05:59:35 10° ENE visible
11 Sep -0.6 05:04:32 17° ESE 05:04:32 17° ESE 05:05:50 10° E visible
11 Sep -2.7 06:37:08 15° WSW 06:39:35 43° NNW 06:42:44 10° NE visible
12 Sep -3.5 05:46:12 82° WNW 05:46:16 83° NW 05:49:33 10° NE visible
